Location: Mohawk View
(42.7837°N, 73.7885°W)
Time: 02:04:11
(UTC+00:00)

USA 229 DEB - Pass Details

Date: 17 June 2021
Orbit: 955 x 1257 km, 63.4° (Epoch: 25 July)

Event Time Altitude Azimuth Distance (km) Brightness Sun altitude
Exits shadow 06:08:24 40° 216° (SW) 1,427 3.9 -21.8°
Maximum altitude 06:10:57 89° 301° (WNW) 1,015 3.5 -21.6°
Drops below altitude 10° 06:17:46 10° 36° (NE) 2,894 7.0 -21.2°
Sets 06:20:30 0° 37° (NE) 3,898 8.0 -21.0°
